EW0139 Weather Reports


time (UTC)temp
F
wind
direction
speed
knots
gust
knots
rain 1hr
in
rain 24hr
in
rain mn
in
humidity
%
barometer
mb
20260509233757 65 312 7.8 12.2 0.00 0.00 0.00 34 1015.4
20260509232759 65 257 6.1 8.7 0.00 0.00 0.00 36 1015.3
20260509231759 64 283 5.2 12.2 0.00 0.00 0.00 36 1015.4
20260509230819 65 281 8.7 14.8 0.00 0.00 0.00 36 1015.4
20260509225758 64 299 5.2 11.3 0.00 0.00 0.00 37 1015.3
20260509224742 65 302 6.1 16.5 0.00 0.00 0.00 35 1015.3
20260509223746 64 294 7.8 12.2 0.00 0.00 0.00 36 1015.3
20260509222806 65 313 4.3 14.8 0.00 0.00 0.00 35 1015.3
20260509221743 64 296 3.5 8.7 0.00 0.00 0.00 35 1015.3
20260509220747 63 287 3.5 10.4 0.00 0.00 0.00 37 1015.3
20260509215752 65 304 8.7 16.5 0.00 0.00 0.00 34 1015.4
20260509214752 64 302 5.2 11.3 0.00 0.00 0.00 34 1015.3
20260509213813 63 313 6.1 10.4 0.00 0.00 0.00 36 1015.6
20260509212751 63 278 8.7 12.2 0.00 0.00 0.00 36 1015.7
20260509211748 63 263 6.1 9.6 0.00 0.00 0.00 37 1015.7
20260509210748 64 277 7.0 11.3 0.00 0.00 0.00 35 1015.8
20260509205756 64 262 9.6 20.0 0.00 0.00 0.00 37 1015.7
20260509204758 64 277 5.2 15.6 0.00 0.00 0.00 36 1015.7
20260509203756 63 321 4.3 14.8 0.00 0.00 0.00 36 1015.6
20260509202741 63 322 8.7 13.9 0.00 0.00 0.00 35 1015.5
20260509201744 63 271 7.8 11.3 0.00 0.00 0.00 35 1015.6
20260509200745 62 262 6.1 11.3 0.00 0.00 0.00 35 1015.7
20260509195746 62 282 1.7 9.6 0.00 0.00 0.00 37 1015.5
20260509194749 62 228 5.2 12.2 0.00 0.00 0.00 36 1015.7
20260509193750 62 315 3.5 6.1 0.00 0.00 0.00 38 1015.6
20260509192756 62 240 2.6 8.7 0.00 0.00 0.00 40 1015.7
20260509191758 61 354 3.5 10.4 0.00 0.00 0.00 36 1015.7
20260509190820 61 143 0.9 8.7 0.00 0.00 0.00 39 1015.8
20260509185741 60 293 3.5 10.4 0.00 0.00 0.00 42 1015.8
20260509184743 61 161 5.2 5.2 0.00 0.00 0.00 40 1015.8
20260509183807 60 151 1.7 5.2 0.00 0.00 0.00 42 1015.7
20260509182748 60 250 4.3 8.7 0.00 0.00 0.00 40 1015.9
20260509181808 59 75 0.9 8.7 0.00 0.00 0.00 43 1015.8
20260509180746 59 127 5.2 6.1 0.00 0.00 0.00 41 1015.8
20260509175745 58 352 4.3 6.1 0.00 0.00 0.00 41 1015.8
20260509174750 58 201 2.6 8.7 0.00 0.00 0.00 42 1015.8
20260509173750 58 174 5.2 8.7 0.00 0.00 0.00 43 1015.8
20260509172752 58 118 7.0 10.4 0.00 0.00 0.00 42 1015.8
20260509171753 57 221 0.0 3.5 0.00 0.00 0.00 43 1015.7
20260509170757 57 135 0.9 7.8 0.00 0.00 0.00 43 1015.8
20260509165757 56 105 5.2 6.1 0.00 0.00 0.00 43 1015.7
20260509164818 56 156 4.3 7.8 0.00 0.00 0.00 43 1015.8
20260509163758 56 65 3.5 6.1 0.00 0.00 0.00 42 1015.8
20260509162742 56 100 1.7 6.1 0.00 0.00 0.00 45 1015.8
20260509161744 55 106 5.2 5.2 0.00 0.00 0.00 45 1015.8
20260509160744 54 67 0.0 5.2 0.00 0.00 0.00 47 1015.7
20260509155748 54 60 1.7 7.0 0.00 0.00 0.00 46 1015.7
20260509154749 54 82 1.7 5.2 0.00 0.00 0.00 47 1015.6
20260509153753 52 128 2.6 7.8 0.00 0.00 0.00 48 1015.5
20260509152756 52 90 5.2 8.7 0.00 0.00 0.00 48 1015.4
20260509151738 51 96 4.3 9.6 0.00 0.00 0.00 51 1015.4
20260509150740 51 107 2.6 6.1 0.00 0.00 0.00 53 1015.6
20260509145749 50 90 3.5 8.7 0.00 0.00 0.00 55 1015.5
20260509144747 50 90 3.5 9.6 0.00 0.00 0.00 54 1015.5
20260509143747 49 92 4.3 9.6 0.00 0.00 0.00 55 1015.4
20260509142748 49 105 4.3 8.7 0.00 0.00 0.00 56 1015.4
20260509141754 48 91 7.8 8.7 0.00 0.00 0.00 56 1015.2
20260509140754 48 96 6.1 8.7 0.00 0.00 0.00 57 1015.3
20260509135755 48 89 7.8 9.6 0.00 0.00 0.00 56 1015.2
20260509134755 47 88 3.5 8.7 0.00 0.00 0.00 58 1015.0
20260509133754 46 36 1.7 6.1 0.00 0.00 0.00 61 1015.0
20260509132800 45 36 1.7 4.3 0.00 0.00 0.00 65 1015.0
20260509131740 43 36 0.0 4.3 0.00 0.00 0.00 68 1015.0
20260509130741 43 36 2.6 5.2 0.00 0.00 0.00 67 1014.9
20260509125741 42 33 1.7 5.2 0.00 0.00 0.00 69 1014.8
20260509124745 40 5 0.0 4.3 0.00 0.00 0.00 71 1014.8
20260509123805 39 5 0.0 1.7 0.00 0.00 0.00 73 1014.7
20260509122744 38 5 0.0 0.9 0.00 0.00 0.00 74 1014.6
20260509121744 38 5 0.0 0.0 0.00 0.00 0.00 74 1014.4
20260509120745 38 5 0.0 0.0 0.00 0.00 0.00 74 1014.2
20260509115748 38 5 0.0 0.9 0.00 0.00 0.00 73 1014.1
20260509114751 38 5 0.0 3.5 0.00 0.00 0.00 72 1013.8
20260509113750 38 5 0.0 2.6 0.00 0.00 0.00 73 1013.8
20260509112751 38 4 0.9 5.2 0.00 0.00 0.00 72 1013.5
20260509111755 38 11 2.6 3.5 0.00 0.00 0.00 72 1013.5
20260509110756 39 11 0.9 2.6 0.00 0.00 0.00 72 1013.2
20260509105759 39 10 0.0 2.6 0.00 0.00 0.00 71 1013.2
20260509104740 40 11 0.9 3.5 0.00 0.00 0.00 71 1013.2
20260509103746 40 11 1.7 3.5 0.00 0.00 0.00 71 1012.9
20260509102806 40 11 2.6 4.3 0.00 0.00 0.00 73 1012.8
20260509101745 40 10 1.7 3.5 0.00 0.00 0.00 72 1012.7
20260509100806 40 11 1.7 4.3 0.00 0.00 0.00 72 1012.5
20260509095745 40 14 1.7 3.5 0.00 0.00 0.00 73 1012.3
20260509094749 41 28 1.7 5.2 0.00 0.00 0.00 72 1012.1
20260509093814 41 355 1.7 7.0 0.00 0.00 0.00 73 1012.0
20260509092755 42 19 2.6 3.5 0.00 0.00 0.00 72 1011.8
20260509091755 43 20 2.6 3.5 0.00 0.00 0.00 71 1011.8
20260509090758 43 19 1.7 3.5 0.00 0.00 0.00 70 1011.5
20260509085746 43 19 2.6 3.5 0.00 0.00 0.00 70 1011.3
20260509084748 44 19 0.0 1.7 0.00 0.00 0.00 68 1011.1
20260509083809 44 19 1.7 3.5 0.00 0.00 0.00 67 1010.8
20260509082750 45 19 0.9 5.2 0.00 0.00 0.00 66 1010.7
20260509081755 45 9 1.7 3.5 0.00 0.00 0.00 67 1010.5
20260509080755 45 5 1.7 5.2 0.00 0.00 0.00 67 1010.5
20260509075755 45 5 2.6 4.3 0.00 0.00 0.00 67 1010.4
20260509074820 46 6 1.7 3.5 0.00 0.00 0.00 67 1010.3
20260509073820 46 36 1.7 6.1 0.00 0.00 0.00 66 1010.1
20260509072742 46 342 0.9 4.3 0.00 0.00 0.00 67 1010.0
20260509071742 46 340 2.6 5.2 0.00 0.00 0.00 67 1010.0
20260509070802 47 339 3.5 5.2 0.00 0.00 0.00 66 1009.8
20260509065745 48 345 3.5 6.1 0.00 0.00 0.00 64 1009.6
20260509064745 49 352 4.3 6.1 0.00 0.00 0.00 62 1009.7
20260509063749 50 15 1.7 3.5 0.00 0.00 0.00 61 1009.5
20260509062753 49 15 2.6 4.3 0.00 0.00 0.00 63 1009.3
20260509061754 48 15 1.7 2.6 0.00 0.00 0.00 65 1009.2
20260509060754 49 15 0.0 0.0 0.00 0.00 0.00 63 1009.1
20260509055758 49 15 0.0 0.0 0.00 0.00 0.00 63 1008.9
20260509054758 50 15 0.0 0.0 0.00 0.00 0.00 61 1009.0
20260509053759 50 15 0.0 0.0 0.00 0.00 0.00 60 1008.8
20260509052758 50 15 0.0 2.6 0.00 0.00 0.00 60 1008.7
20260509051818 51 15 1.7 1.7 0.00 0.00 0.00 60 1008.5
20260509050739 52 15 1.7 1.7 0.00 0.00 0.00 58 1008.3
20260509045804 53 15 0.9 2.6 0.00 0.00 0.00 56 1008.2
20260509044743 53 15 0.0 3.5 0.00 0.00 0.00 55 1008.1
20260509043746 54 15 0.0 2.6 0.00 0.00 0.00 54 1008.0
20260509042808 55 15 0.0 5.2 0.00 0.00 0.00 53 1008.0
20260509041752 56 32 2.6 6.1 0.00 0.00 0.00 51 1007.7
20260509040753 56 45 3.5 7.8 0.00 0.00 0.00 52 1007.4
20260509035752 56 60 0.9 6.1 0.00 0.00 0.00 51 1007.2
20260509034757 57 48 4.3 6.1 0.00 0.00 0.00 50 1006.9
20260509033743 58 21 1.7 6.1 0.00 0.00 0.00 49 1006.6
20260509032746 59 47 2.6 8.7 0.00 0.00 0.00 48 1006.4
20260509031749 59 25 2.6 8.7 0.00 0.00 0.00 47 1006.3
20260509030751 59 358 2.6 8.7 0.00 0.00 0.00 46 1006.0
20260509025754 59 18 2.6 9.6 0.00 0.00 0.00 46 1005.7
20260509024758 60 35 4.3 11.3 0.00 0.00 0.00 45 1005.6
20260509023756 60 46 1.7 13.9 0.00 0.00 0.00 44 1005.5
20260509022740 61 15 1.7 7.8 0.00 0.00 0.00 45 1005.2
20260509021742 61 17 2.6 6.1 0.00 0.00 0.00 45 1005.0
20260509020746 62 20 1.7 8.7 0.00 0.00 0.00 44 1004.8
20260509015747 62 319 6.1 8.7 0.00 0.00 0.00 43 1004.7
20260509014749 63 10 6.1 12.2 0.00 0.02 0.00 43 1004.8
20260509013749 64 348 6.1 14.8 0.00 0.02 0.00 42 1004.8
20260509012753 65 7 7.8 15.6 0.00 0.02 0.00 40 1004.7
20260509011757 64 357 9.6 17.4 0.00 0.02 0.00 40 1004.8
20260509010758 65 355 8.7 19.1 0.00 0.02 0.00 38 1004.4
20260509005820 68 301 13.0 26.1 0.00 0.02 0.00 35 1004.6
20260509004743 70 284 14.8 17.4 0.00 0.02 0.00 30 1005.0
20260509003743 70 315 5.2 20.0 0.00 0.02 0.00 31 1004.5
20260509002744 71 314 9.6 20.9 0.00 0.02 0.00 28 1004.4
20260509001742 72 255 7.8 20.0 0.00 0.02 0.00 27 1004.1
20260509000747 72 261 10.4 17.4 0.00 0.02 0.00 27 1004.3
20260508235751 73 279 13.9 20.0 0.00 0.02 0.00 27 1004.3
20260508234752 73 226 11.3 19.1 0.00 0.02 0.00 26 1004.3